User: anonymous   Login
Location: Hawks Ness
(60.2333°N, 1.1667°W)
Time: 15:37:57
(UTC+00:00)
Language:

Cosmos 2333 Rocket - Orbit

View from above orbital plane
View from above orbital plane
View from above satellite
View from above satellite

Ground track
Ground track

The orbit data is extracted from the following two-line orbital elements,

1 24298U 96051B   19342.17358684  .00000140  00000-0  10220-3 0  9990
2 24298  70.8366 315.8964 0019030 273.5642  86.3302 14.12457455199464
Epoch (UTC): 08 December 2019 04:09:57
Eccentricity: 0.0019030
inclination: 70.8366°
perigee height: 837 km
apogee height: 865 km
right ascension of ascending node: 315.8964°
argument of perigee: 273.5642°
revolutions per day: 14.12457455
mean anomaly at epoch: 86.3302°
orbit number at epoch: 19946

The dashed part of the orbit path shows where the satellite is in the earth's shadow,  

DLR